Paganella, Italy

9:21 AM CEST on April 27, 2017 (GMT +0200)
Paganella

Weather History for LIVP - April, 2013

Change the Weather History Date:

Thursday, April 11, 2013

  Actual Average Record
Temperature  
Mean Temperature 27 °F -  
Max Temperature 30 °F 38 °F 59 °F (1997)
Min Temperature 24 °F 29 °F 17 °F (2006)
Degree Days  
Heating Degree Days 38    
Moisture  
Dew Point 28 °F    
Average Humidity 99    
Maximum Humidity 100    
Minimum Humidity 86    
Precipitation  
Precipitation 0.02 in 0.07 in - ()
Sea Level Pressure  
Sea Level Pressure 29.85 in    
Wind  
Wind Speed 14 mph ()    
Max Wind Speed 29 mph    
Max Gust Speed 41 mph    
Visibility 0.1 miles    
Events Fog , Snow    
Averages and records for this station are not official NWS values.
T = Trace of Precipitation, MM = Missing Value Source: Averaged Metar Reports

Daily Weather History Graph

Daily Weather History Graph

Search for Another Location

Airport or City:

Trip Planner

Search our weather history database for the weather conditions in past years. The results will help you decide how hot, cold, wet, or windy it might be!

Date:

Astronomy

Apr. 11, 2013 Rise Set
Actual Time 6:36 AM CEST 7:57 PM CEST
Civil Twilight 6:05 AM CEST 8:28 PM CEST
Nautical Twilight 5:28 AM CEST 9:06 PM CEST
Astronomical Twilight 4:48 AM CEST 9:46 PM CEST
Moon 6:54 AM CEST (4/11) 9:21 PM CEST (4/11)
Length of Visible Light 14h 23m
Length of Day
13h 21m
New Moon, 1% of the Moon is Illuminated
Apr 11
New Moon
Apr 18
First Quarter
Apr 25
Full
May 2
Last Quarter
May 10
New

Hourly Weather History & Observations

Time (CEST) Temp. Windchill Dew Point Humidity Pressure Visibility Wind Dir Wind Speed Gust Speed Precip Events Conditions
12:55 AM 26.6 °F 14.7 °F 26.6 °F 100% 29.86 in 0.1 mi SSW 15.0 mph - N/A Fog Light Freezing Fog
1:55 AM 26.6 °F 16.2 °F 26.6 °F 100% 29.86 in 0.6 mi SSW 11.5 mph - N/A Fog Light Freezing Fog
2:00 AM 27 °F - 27 °F 98%  in 1 mi SSW 11.5 mph - - Fog Heavy Fog
2:55 AM 26.6 °F 14.7 °F 24.8 °F 93% 29.86 in 0.1 mi SSW 15.0 mph - N/A Fog Light Freezing Fog
3:55 AM 26.6 °F 14.7 °F 23.0 °F 86% 29.86 in 0.6 mi SSW 15.0 mph - N/A Fog Light Freezing Fog
4:55 AM 26.6 °F 14.3 °F 26.6 °F 100% 29.83 in 0.0 mi SW 16.1 mph - N/A Fog Light Freezing Fog
5:00 AM 26 °F - 26 °F 99%  in 0 mi SW 16.1 mph - - Fog Heavy Fog
5:55 AM 24.8 °F 11.1 °F 24.8 °F 100% 29.83 in 0.0 mi SSW 18.4 mph - N/A Fog Light Freezing Fog
6:55 AM 24.8 °F 11.1 °F 24.8 °F 100% 29.83 in 0.0 mi SSW 18.4 mph - N/A Fog Light Freezing Fog
7:55 AM 24.8 °F 13.4 °F 24.8 °F 100% 29.83 in 0.1 mi SSW 12.7 mph - N/A Fog Light Freezing Fog
8:00 AM 25 °F - 25 °F 98%  in 0 mi SSW 12.7 mph - - Fog Heavy Fog
8:55 AM 26.6 °F 19.1 °F 26.6 °F 100% 29.86 in 0.1 mi SSW 6.9 mph - N/A Fog Light Freezing Fog
9:55 AM 28.4 °F 23.3 °F 28.4 °F 100% 29.86 in 0.1 mi SSW 4.6 mph - N/A Fog Light Freezing Fog
10:55 AM 28.4 °F 19.7 °F 28.4 °F 100% 29.86 in 0.1 mi SW 9.2 mph - N/A Fog Light Freezing Fog
11:00 AM 28 °F - 28 °F 100%  in 0 mi SW 9.2 mph - - Fog Heavy Fog
11:55 AM 30.2 °F 21.9 °F 28.4 °F 93% 29.86 in 0.0 mi SW 9.2 mph - N/A Fog Light Freezing Fog
12:55 PM 30.2 °F 21.3 °F 30.2 °F 100% 29.86 in 0.0 mi SSW 10.4 mph - N/A Fog Light Freezing Fog
1:55 PM 30.2 °F 20.8 °F 30.2 °F 100% 29.89 in 0.0 mi SW 11.5 mph - N/A Fog Light Freezing Fog
2:00 PM 30 °F - 29 °F 97%  in 0 mi SW 11.5 mph - - Fog Heavy Fog
2:55 PM 30.2 °F 19.3 °F 30.2 °F 100% 29.86 in 0.0 mi SW 15.0 mph - N/A Fog Light Freezing Fog
3:55 PM 30.2 °F 19.8 °F 30.2 °F 100% 29.86 in 0.0 mi SSW 13.8 mph - N/A Fog Light Freezing Fog
4:55 PM 30.2 °F 16.8 °F 30.2 °F 100% 29.86 in 0.0 mi SSW 23.0 mph - N/A Fog Light Freezing Fog
5:00 PM 30 °F - 30 °F 99%  in 0 mi SSW 23.0 mph - - Fog Heavy Fog
5:55 PM 30.2 °F 15.9 °F 30.2 °F 100% 29.83 in 0.0 mi SSW 26.5 mph - N/A Fog Light Freezing Fog
6:55 PM 30.2 °F 15.4 °F 30.2 °F 100% 29.86 in 0.0 mi SSW 28.8 mph 40.3 mph N/A Fog Light Freezing Fog
7:55 PM 30.2 °F 16.5 °F 30.2 °F 100% 29.83 in 0.0 mi SSW 24.2 mph - N/A Fog Light Freezing Fog
8:00 PM 30 °F - 30 °F 99%  in 0 mi SSW 24.2 mph - - Fog Heavy Fog
8:55 PM 30.2 °F 16.5 °F 30.2 °F 100% 29.83 in - South 24.2 mph - N/A   Unknown
9:55 PM 30.2 °F 15.7 °F 30.2 °F 100% 29.83 in - SSW 27.6 mph - N/A Fog Light Freezing Fog
10:55 PM 28.4 °F 14.1 °F 28.4 °F 100% 29.83 in - South 24.2 mph - N/A Fog Light Freezing Fog
11:00 PM 29 °F - 29 °F 100%  in 0 mi South 24.2 mph - - Snow Light Snow
11:55 PM 30.2 °F 15.7 °F 30.2 °F 100% 29.80 in - SSW 27.6 mph 41.4 mph N/A Fog Light Freezing Fog